Voltar ao catálogo

ONEWEB-0502

AtivoComunicaçõesPO
NORAD 54120·PAYLOAD·🇬🇧 United Kingdom

Lançado Oct 22, 2022 de Satish Dhawan Space Centre

Loading…

Próximas Passagens (próximas 24 horas)

TLE

AtualizadoSource: CelesTrak SupGP

Época: Sep 14, 2026, 18:58 UTC

1 54120C 22138H   26257.79080278 -.00000279  00000+0 -69818-3 0  2572
2 54120  87.9115 287.1105 0002145  88.8523  22.3973 13.19727046    12

Acompanhe ONEWEB-0502 em tempo real com AllMySat

Download on the App Store